W5TTY Weather Reports


Display with metric or nautical units.
time (UTC)temp
F
wind
direction
speed
MPH
gust
MPH
rain 1hr
in
rain 24hr
in
rain mn
in
humidity
%
barometer
mb
20260902192326 92 238 6.0 10.0 0.00 0.00 0.00 68 1011.9
20260902191833 92 306 4.0 16.0 0.00 0.00 0.00 68 1011.9
20260902191340 92 238 9.0 16.0 0.00 0.00 0.00 68 1012.0
20260902190826 92 266 5.0 15.0 0.00 0.00 0.00 69 1012.1
20260902190329 92 269 8.0 13.0 0.00 0.00 0.00 69 1012.2
20260902185837 92 249 8.0 15.0 0.00 0.00 0.00 70 1012.2
20260902185322 92 247 9.0 15.0 0.00 0.00 0.00 70 1012.2
20260902184824 92 254 8.0 14.0 0.00 0.00 0.00 71 1012.3
20260902184355 92 260 7.0 14.0 0.00 0.00 0.00 71 1012.3
20260902183842 92 273 6.0 15.0 0.00 0.00 0.00 71 1012.4
20260902183328 92 258 11.0 16.0 0.00 0.00 0.00 72 1012.5
20260902182836 92 280 9.0 16.0 0.00 0.00 0.00 72 1012.6
20260902182320 92 290 6.0 15.0 0.00 0.00 0.00 72 1012.7
20260902181828 92 286 8.0 18.0 0.00 0.00 0.00 73 1012.8
20260902181401 92 275 10.0 18.0 0.00 0.00 0.00 74 1012.8
20260902180846 92 285 7.0 23.0 0.00 0.00 0.00 74 1013.0
20260902180331 92 249 12.0 23.0 0.00 0.00 0.00 75 1013.0
20260902175834 92 269 11.0 18.0 0.00 0.00 0.00 75 1013.2
20260902175337 91 271 9.0 15.0 0.00 0.00 0.00 75 1013.3
20260902174824 92 263 10.0 20.0 0.00 0.00 0.00 76 1013.4
20260902174326 92 265 11.0 20.0 0.00 0.00 0.00 76 1013.5
20260902173833 92 259 9.0 20.0 0.00 0.00 0.00 77 1013.5
20260902173320 91 258 9.0 20.0 0.00 0.00 0.00 78 1013.6
20260902172824 91 244 8.0 17.0 0.00 0.00 0.00 78 1013.7
20260902172325 91 227 8.0 17.0 0.00 0.00 0.00 78 1013.9
20260902171836 91 216 8.0 14.0 0.00 0.00 0.00 78 1013.9
20260902171345 91 225 7.0 15.0 0.00 0.00 0.00 78 1014.0
20260902170829 91 254 8.0 15.0 0.00 0.00 0.00 79 1014.2
20260902170331 90 270 6.0 13.0 0.00 0.00 0.00 80 1014.2
20260902165838 90 309 4.0 10.0 0.00 0.00 0.00 80 1014.2
20260902165321 89 266 5.0 11.0 0.00 0.00 0.00 80 1014.3
20260902164826 89 280 4.0 11.0 0.00 0.00 0.00 80 1014.4
20260902164327 89 271 5.0 11.0 0.00 0.00 0.00 81 1014.4
20260902163859 88 281 5.0 11.0 0.00 0.00 0.00 81 1014.5
20260902163343 88 275 5.0 11.0 0.00 0.00 0.00 80 1014.6
20260902162830 88 327 2.0 9.0 0.00 0.00 0.00 81 1014.7
20260902162354 88 23 3.0 9.0 0.00 0.00 0.00 82 1014.6
20260902161905 88 236 6.0 10.0 0.00 0.00 0.00 82 1014.7
20260902161327 87 286 2.0 10.0 0.00 0.00 0.00 82 1014.7
20260902160850 87 57 3.0 12.0 0.00 0.00 0.00 82 1014.7
20260902160340 86 336 4.0 12.0 0.00 0.00 0.00 82 1014.7
20260902155847 86 301 4.0 9.0 0.00 0.00 0.00 82 1014.7
20260902155329 86 284 3.0 9.0 0.00 0.00 0.00 82 1014.8
20260902154834 85 309 4.0 9.0 0.00 0.00 0.00 82 1014.9
20260902154320 85 275 3.0 9.0 0.00 0.00 0.00 82 1014.8
20260902153828 85 273 6.0 12.0 0.00 0.00 0.00 83 1014.9
20260902153331 85 283 4.0 12.0 0.00 0.00 0.00 83 1014.8
20260902152819 85 241 5.0 11.0 0.00 0.00 0.00 83 1014.6
20260902152318 84 265 8.0 16.0 0.00 0.00 0.00 83 1014.7
20260902151824 84 263 7.0 16.0 0.00 0.00 0.00 83 1014.7
20260902151330 84 320 3.0 11.0 0.00 0.00 0.00 83 1014.6
20260902150836 83 236 6.0 10.0 0.00 0.00 0.00 83 1014.7
20260902150342 83 244 3.0 9.0 0.00 0.00 0.00 83 1014.8
20260902145834 82 265 5.0 9.0 0.00 0.00 0.00 83 1014.7
20260902145337 82 270 3.0 9.0 0.00 0.00 0.00 83 1014.7
20260902144842 81 250 5.0 9.0 0.00 0.00 0.00 83 1014.7
20260902144328 81 302 2.0 6.0 0.00 0.00 0.00 83 1014.8
20260902143830 80 304 2.0 9.0 0.00 0.00 0.00 83 1014.8
20260902143401 79 331 4.0 9.0 0.00 0.00 0.00 83 1014.9
20260902142844 79 302 1.0 5.0 0.00 0.00 0.00 83 1014.9
20260902142327 79 304 2.0 4.0 0.00 0.00 0.00 82 1014.8
20260902141829 78 317 3.0 4.0 0.00 0.00 0.00 82 1014.8
20260902141334 78 325 1.0 4.0 0.00 0.00 0.00 82 1014.8
20260902140819 78 323 3.0 4.0 0.00 0.00 0.00 82 1014.8
20260902140323 78 323 1.0 4.0 0.00 0.00 0.00 82 1014.8
20260902135829 78 324 2.0 4.0 0.00 0.00 0.00 82 1014.8
20260902135402 78 324 2.0 4.0 0.00 0.00 0.00 82 1014.9
20260902134825 78 323 1.0 4.0 0.00 0.00 0.00 81 1014.9
20260902134330 77 325 2.0 4.0 0.00 0.00 0.00 81 1014.8
20260902133324 77 326 2.0 3.0 0.00 0.00 0.00 81 1014.9
20260902132829 77 326 0.0 4.0 0.00 0.00 0.00 81 1014.8
20260902132335 77 292 2.0 4.0 0.00 0.00 0.00 81 1014.8
20260902131842 77 292 2.0 4.0 0.00 0.00 0.00 81 1014.7
20260902131333 77 303 2.0 4.0 0.00 0.00 0.00 81 1014.7
20260902130839 76 301 3.0 4.0 0.00 0.00 0.00 81 1014.6
20260902130326 76 312 3.0 4.0 0.00 0.00 0.00 81 1014.6
20260902125826 76 300 3.0 4.0 0.00 0.00 0.00 81 1014.4
20260902125327 76 305 2.0 4.0 0.00 0.00 0.00 80 1014.2
20260902124833 76 269 3.0 6.0 0.00 0.00 0.00 80 1014.2
20260902124318 76 282 3.0 4.0 0.00 0.00 0.00 80 1014.2
20260902123822 76 281 2.0 4.0 0.00 0.00 0.00 80 1014.2
20260902123336 76 276 2.0 4.0 0.00 0.00 0.00 80 1014.0
20260902122847 76 277 2.0 4.0 0.00 0.00 0.00 80 1014.0
20260902122350 76 263 3.0 4.0 0.00 0.00 0.00 80 1013.9
20260902121833 76 257 2.0 4.0 0.00 0.00 0.00 80 1013.9
20260902121317 76 255 2.0 4.0 0.00 0.00 0.00 80 1013.9
20260902120822 76 254 2.0 4.0 0.00 0.00 0.00 80 1013.9
20260902120357 76 254 2.0 6.0 0.00 0.00 0.00 79 1013.9
20260902115822 76 257 3.0 6.0 0.00 0.00 0.00 79 1013.9
20260902115327 76 258 2.0 4.0 0.00 0.00 0.00 79 1013.8
20260902114834 76 258 2.0 4.0 0.00 0.00 0.00 79 1013.8
20260902114322 76 258 3.0 4.0 0.00 0.00 0.00 79 1013.8
20260902113823 76 258 3.0 4.0 0.00 0.00 0.00 79 1013.9
20260902113330 76 325 3.0 4.0 0.00 0.00 0.00 79 1013.8
20260902112840 76 325 2.0 4.0 0.00 0.00 0.00 79 1013.8
20260902112332 75 325 3.0 4.0 0.00 0.00 0.00 79 1013.8
20260902031828 82 90 0.0 0.0 0.00 0.00 0.00 63 1014.0
20260902031331 82 90 0.0 0.0 0.00 0.00 0.00 62 1013.9
20260902030818 82 90 0.0 0.0 0.00 0.00 0.00 62 1013.9
20260902030319 82 90 0.0 0.0 0.00 0.00 0.00 62 1013.9
20260902025851 83 90 0.0 2.0 0.00 0.00 0.00 62 1013.8
20260902025333 83 90 1.0 3.0 0.00 0.00 0.00 61 1013.8
20260902024820 83 90 1.0 3.0 0.00 0.00 0.00 61 1013.8
20260902024323 83 90 2.0 3.0 0.00 0.00 0.00 61 1013.7
20260902023824 83 90 1.0 3.0 0.00 0.00 0.00 61 1013.6
20260902023339 83 90 2.0 3.0 0.00 0.00 0.00 60 1013.6
20260902022845 83 90 2.0 2.0 0.00 0.00 0.00 60 1013.5
20260902022325 84 90 0.0 0.0 0.00 0.00 0.00 60 1013.4
20260902021829 84 90 0.0 0.0 0.00 0.00 0.00 60 1013.4
20260902021333 84 90 0.0 2.0 0.00 0.00 0.00 59 1013.4
20260902020818 84 90 0.0 3.0 0.00 0.00 0.00 59 1013.2
20260902020323 84 90 1.0 3.0 0.00 0.00 0.00 59 1013.1
20260902015826 85 90 1.0 4.0 0.00 0.00 0.00 59 1013.0
20260902015330 85 89 2.0 4.0 0.00 0.00 0.00 58 1013.0
20260902014817 85 96 2.0 6.0 0.00 0.00 0.00 58 1013.0
20260902014350 85 100 3.0 7.0 0.00 0.00 0.00 58 1013.0
20260902013836 85 105 2.0 7.0 0.00 0.00 0.00 57 1013.0
20260902013322 85 105 3.0 7.0 0.00 0.00 0.00 57 1013.0
20260902012829 86 94 3.0 8.0 0.00 0.00 0.00 57 1013.0
20260902012336 86 111 5.0 8.0 0.00 0.00 0.00 57 1013.0
20260902011839 86 121 3.0 9.0 0.00 0.00 0.00 56 1012.9
20260902011323 86 118 5.0 9.0 0.00 0.00 0.00 56 1013.0
20260902010829 86 105 4.0 9.0 0.00 0.00 0.00 56 1013.0
20260902010334 87 72 6.0 12.0 0.00 0.00 0.00 55 1013.1
20260902005846 87 102 5.0 12.0 0.00 0.00 0.00 55 1013.0
20260902005326 87 86 7.0 12.0 0.00 0.00 0.00 55 1013.0
20260902004833 87 89 8.0 12.0 0.00 0.00 0.00 54 1012.9
20260902004338 88 115 6.0 16.0 0.00 0.00 0.00 54 1012.8
20260902003823 88 115 8.0 16.0 0.00 0.00 0.00 53 1012.7
20260902003327 88 120 6.0 13.0 0.00 0.00 0.00 53 1012.6
20260902002835 89 98 8.0 13.0 0.00 0.00 0.00 53 1012.6
20260902002321 89 92 5.0 18.0 0.00 0.00 0.00 53 1012.6
20260902001828 89 136 6.0 18.0 0.00 0.00 0.00 52 1012.6
20260902001329 90 111 7.0 15.0 0.00 0.00 0.00 52 1012.5
20260902000902 90 109 8.0 15.0 0.00 0.00 0.00 52 1012.5
20260902000344 91 86 7.0 17.0 0.00 0.00 0.00 51 1012.3
20260901235824 91 138 9.0 16.0 0.00 0.00 0.00 51 1012.3
20260901235325 92 108 8.0 21.0 0.00 0.00 0.00 51 1012.3
20260901234850 92 135 9.0 21.0 0.00 0.00 0.00 51 1012.2
20260901234334 93 140 11.0 21.0 0.00 0.00 0.00 51 1012.2
20260901233845 94 132 11.0 20.0 0.00 0.00 0.00 51 1012.2
20260901233329 95 117 9.0 20.0 0.00 0.00 0.00 51 1012.1
20260901232836 95 101 8.0 13.0 0.00 0.00 0.00 51 1012.1
20260901232320 95 96 6.0 11.0 0.00 0.00 0.00 51 1012.0
20260901231826 95 118 6.0 9.0 0.00 0.00 0.00 52 1012.1
20260901231333 95 84 5.0 11.0 0.00 0.00 0.00 52 1012.1
20260901230822 95 126 7.0 11.0 0.00 0.00 0.00 52 1012.1
20260901230327 95 80 4.0 11.0 0.00 0.00 0.00 52 1012.1
20260901225836 95 90 5.0 12.0 0.00 0.00 0.00 52 1012.1
20260901225322 95 113 7.0 13.0 0.00 0.00 0.00 52 1012.1
20260901224827 95 84 7.0 11.0 0.00 0.00 0.00 52 1012.1
20260901224334 95 80 5.0 11.0 0.00 0.00 0.00 52 1012.1
20260901223819 95 63 4.0 10.0 0.00 0.00 0.00 52 1012.2
20260901223322 95 126 2.0 7.0 0.00 0.00 0.00 52 1012.2
20260901222831 95 74 3.0 4.0 0.00 0.00 0.00 52 1012.3
20260901222318 95 73 3.0 5.0 0.00 0.00 0.00 52 1012.3
20260901221824 95 72 3.0 7.0 0.00 0.00 0.00 52 1012.2
20260901221351 95 92 4.0 7.0 0.00 0.00 0.00 52 1012.3
20260901220837 95 65 4.0 9.0 0.00 0.00 0.00 53 1012.3
20260901220323 95 75 4.0 9.0 0.00 0.00 0.00 53 1012.3
20260901215855 95 51 5.0 9.0 0.00 0.00 0.00 53 1012.3
20260901215320 95 55 5.0 9.0 0.00 0.00 0.00 53 1012.3
20260901214827 95 38 3.0 9.0 0.00 0.00 0.00 53 1012.4
20260901214332 95 49 4.0 12.0 0.00 0.00 0.00 53 1012.4
20260901213821 95 51 8.0 12.0 0.00 0.00 0.00 53 1012.4
20260901213328 95 49 7.0 12.0 0.00 0.00 0.00 54 1012.4
20260901212832 96 121 6.0 12.0 0.00 0.00 0.00 54 1012.4
20260901212319 96 111 6.0 15.0 0.00 0.00 0.00 54 1012.4
20260901211826 96 55 5.0 14.0 0.00 0.00 0.00 54 1012.4
20260901211326 96 60 6.0 15.0 0.00 0.00 0.00 55 1012.5
20260901210834 97 77 9.0 15.0 0.00 0.00 0.00 55 1012.5
20260901210345 97 93 9.0 15.0 0.00 0.00 0.00 56 1012.5
20260901205847 97 32 6.0 16.0 0.00 0.00 0.00 56 1012.6
20260901205350 97 69 7.0 16.0 0.00 0.00 0.00 56 1012.8
20260901204835 96 87 6.0 13.0 0.00 0.00 0.00 57 1012.8
20260901204347 96 69 9.0 15.0 0.00 0.00 0.00 57 1013.1
20260901203820 96 96 8.0 17.0 0.00 0.00 0.00 57 1013.1
20260901203333 97 41 10.0 17.0 0.00 0.00 0.00 58 1013.2
20260901202837 96 65 6.0 15.0 0.00 0.00 0.00 59 1013.2
20260901202321 96 107 4.0 16.0 0.00 0.00 0.00 59 1013.4
20260901201845 96 85 8.0 16.0 0.00 0.00 0.00 59 1013.5
20260901201328 96 85 7.0 14.0 0.00 0.00 0.00 60 1013.6
20260901200839 96 104 8.0 18.0 0.00 0.00 0.00 61 1013.6
20260901200341 95 69 9.0 18.0 0.00 0.00 0.00 61 1013.5
20260901195824 95 69 6.0 16.0 0.00 0.00 0.00 61 1013.5
20260901195325 95 54 7.0 16.0 0.00 0.00 0.00 61 1013.5
20260901194835 94 104 4.0 10.0 0.00 0.00 0.00 62 1013.6
20260901194343 94 80 5.0 10.0 0.00 0.00 0.00 62 1013.6
20260901193825 94 63 7.0 10.0 0.00 0.00 0.00 62 1013.7
20260901193329 94 59 5.0 8.0 0.00 0.00 0.00 63 1013.7
20260901192835 94 41 3.0 10.0 0.00 0.00 0.00 63 1013.8